This is the latest recevied weather packets stored in our database for station/object KC5TIL-3. If no packets are shown the sender has not sent any weather packets the latest 10 day(s).
| Time | Temp. | Humidity | Pressure | Rain* | Wind** | Luminosity | Snow |
|---|---|---|---|---|---|---|---|
| 1787616649 | 40° C | 10% | 1008.8 hPa | 0 mm | 3.13 m/s, 181° | - | - |
| 1787616351 | 40° C | 10% | 1008.8 hPa | 0 mm | 2.68 m/s, 132° | - | - |
| 1787616053 | 40° C | 10% | 1008.8 hPa | 0 mm | 2.24 m/s, 226° | - | - |
| 1787615751 | 40° C | 10% | 1008.8 hPa | 0 mm | 4.02 m/s, 200° | - | - |
| 1787615453 | 40° C | 10% | 1008.8 hPa | 0 mm | 3.58 m/s, 202° | - | - |
| 1787615155 | 40.56° C | 10% | 1008.8 hPa | 0 mm | 2.68 m/s, 164° | - | - |
| 1787614853 | 40.56° C | 10% | 1008.8 hPa | 0 mm | 3.13 m/s, 158° | - | - |
| 1787614555 | 40.56° C | 10% | 1008.8 hPa | 0 mm | 3.13 m/s, 116° | - | - |
| 1787614257 | 40.56° C | 10% | 1008.8 hPa | 0 mm | 2.68 m/s, 157° | - | - |
| 1787613951 | 41.11° C | 10% | 1008.8 hPa | 0 mm | 1.79 m/s, 134° | - | - |
| 1787613653 | 41.11° C | 10% | 1008.8 hPa | 0 mm | 2.68 m/s, 189° | - | - |
| 1787613355 | 41.11° C | 10% | 1008.8 hPa | 0 mm | 2.24 m/s, 229° | - | - |
| 1787613049 | 41.11° C | 10% | 1008.8 hPa | 0 mm | 1.79 m/s, 188° | - | - |
| 1787612751 | 41.11° C | 10% | 1008.8 hPa | 0 mm | 3.13 m/s, 172° | - | - |
| 1787612453 | 41.11° C | 10% | 1008.8 hPa | 0 mm | 2.68 m/s, 223° | - | - |
| 1787612152 | 41.11° C | 10% | 1008.8 hPa | 0 mm | 3.13 m/s, 182° | - | - |
| 1787611853 | 41.11° C | 10% | 1008.8 hPa | 0 mm | 3.58 m/s, 219° | - | - |
| 1787611555 | 41.11° C | 10% | 1008.8 hPa | 0 mm | 2.68 m/s, 223° | - | - |
| 1787611254 | 41.11° C | 10% | 1008.8 hPa | 0 mm | 4.02 m/s, 205° | - | - |
| 1787610956 | 41.11° C | 10% | 1008.8 hPa | 0 mm | 3.58 m/s, 185° | - | - |
| 1787610657 | 41.67° C | 10% | 1008.8 hPa | 0 mm | 2.24 m/s, 207° | - | - |
| 1787610356 | 41.11° C | 10% | 1008.8 hPa | 0 mm | 3.13 m/s, 164° | - | - |
| 1787610058 | 41.67° C | 10% | 1008.8 hPa | 0 mm | 2.68 m/s, 117° | - | - |
| 1787609760 | 41.11° C | 10% | 1008.8 hPa | 0 mm | 2.68 m/s, 133° | - | - |
| 1787609458 | 41.67° C | 10% | 1008.8 hPa | 0 mm | 2.68 m/s, 155° | - | - |
* Rain latest hour (hover to see other rain measurements)
** Current wind speed in m/s (hover to see current wind gust speed)